SCP
0 0 0 0 0 0 0 0 0 0 0 0 0 0 0 0 0 -0 -0 -0 -0 -0 -0 -0 -0 0 0 0 0 -0 -0 0 0 0 0 0 0 0 0 0 0 0 0 0
0 0 0 0 0 0 0 0 0 0 0 0 0 0 0 0 0 -0 -0 -0 -0 -0 -0 -0 -0 -0 -0 0 0 -0 -0 0 0 0 0 0 0 0 0 0 0 0 -0 0
0 0 0 0 0 0 0 0 0 0 0 0 0 0 0 0 0 -0 -0 -0 -0 -0 -0 -0 -0 -0 -0 0 0 0 -0 -0 0 0 0 0 0 0 0 0 0 -0 -0 -0
0 0 0 0 0 0 0 0 0 0 0 0 -0 0 0 0 0 -0 -0 -0 -0 -0 -0 -0 -0 -0 -0 -0 -0 0 -0 -0 -0 0 0 0 0 0 0 0 0 0 0 0
0 0 0 0 0 0 0 0 0 0 0 0 -0 0 0 0 0 0 -0 -0 -0 -0 -0 -0 -0 -0 -0 -0 -0 -0 -0 -0 -0 0 0 0 0 0 0 0 0 0 0 0
0 0 0 0 0 0 0 0 0 0 0 0 0 0 0 0 0 0 0 -0 -0 -0 -0 -0 -0 -0 -0 -0 -0 -0 0 -0 -0 0 0 0 0 0 0 0 0 0 0 0
0 0 0 0 0 0 0 0 0 0 0 0 0 0 0 0 0 0 0 -0 -0 -0 -0 -0 -0 -0 -0 -0 -0 -0 0 -0 -0 -0 -0 0 0 0 0 0 0 0 0 0
0 0 0 0 0 0 0 0 0 0 0 0 0 0 0 0 0 0 0 -0 -0 -0 0 -0 -0 -0 -0 -0 -0 -0 0 -0 -0 0 -0 0 -0 -0 -0 0 0 0 0 0
0 0 0 0 0 0 0 0 0 0 0 0 0 0 0 0 0 0 0 -0 -0 0 0 -0 -0 -0 -0 -0 -0 -0 0 0 -0 -0 0 -0 -0 -0 -0 0 0 0 0 0
0 0 0 0 0 0 0 0 0 0 0 0 0 0 0 0 0 0 0 -0 -0 0 -0 -0 0 -0 -0 -0 -0 -0 0 0 -0 -0 0 -0 0 0 0 0 0 0 0 0
0 0 0 0 0 0 0 0 0 0 0 0 0 0 0 0 0 0 0 0 -0 0 0 0 0 -0 -0 -0 -0 -0 0 0 0 0 0 0 -0 -0 0 0 -0 0 -0 -0
0 0 0 0 0 0 0 0 0 0 0 0 0 0 0 0 0 0 0 0 0 0 0 0 0 0 0 0 0 0 0 0 0 0 0 0 0 0 0 0 -0 -0 -0 -0
0 0 0 0 0 0 0 0 0 0 0 0 0 0 0 0 0 0 0 0 0 0 0 0 0 0 0 0 0 0 0 0 0 0 0 0 0 0 0 0 0 -0 -0 -0
0 0 0 0 0 0 0 0 0 0 0 0 0 0 0 0 0 0 0 0 0 0 0 0 0 0 0 0 0 0 0 0 0 0 0 0 0 0 0 0 0 0 0 0
-0 -0 0 0 0 0 0 0 0 0 0 0 0 0 0 0 0 0 0 0 0 0 0 0 0 0 0 0 0 0 0 0 0 0 0 0 0 0 0 0 0 0 0 0
-0 -0 0 0 0 0 0 0 0 0 0 0 0 0 0 0 0 0 0 0 0 0 0 0 0 0 0 0 0 0 0 0 0 0 0 0 0 0 0 0 0 0 0 0
0 -0 -0 0 0 0 0 0 0 0 0 0 0 0 0 0 0 0 0 0 0 0 0 0 0 0 -0 0 0 0 0 0 0 0 0 0 0 0 0 0 0 0 0 0
0 0 -0 0 0 0 0 0 0 0 0 0 0 0 0 0 0 0 0 0 0 0 0 0 0 1 0 0 0 0 0 0 0 0 0 0 0 0 0 0 0 0 0 0
0 0 0 -0 0 -0 0 0 0 0 0 0 0 0 0 0 0 0 0 0 0 1 1 0 0 1 0 0 0 0 0 0 0 0 0 0 0 0 0 0 0 0 0 0
0 0 0 -0 -0 -0 -0 0 0 0 0 0 0 0 0 0 0 0 0 0 0 0 1 0 1 0 1 0 0 0 0 0 0 0 0 0 0 0 0 0 0 0 0 0
0 0 0 0 0 -0 -0 -0 0 0 0 0 0 0 0 0 0 0 1 1 1 1 1 1 1 1 1 1 0 0 0 0 0 0 0 0 0 0 0 0 0 0 0 0
0 0 0 0 0 0 0 -0 -0 -0 -0 -0 0 0 0 0 0 0 1 1 1 1 1 1 0 0 0 0 0 0 0 0 0 0 0 0 0 0 0 0 0 0 0 0
0 0 0 0 0 0 0 0 0 0 -0 -0 -0 -0 -0 0 0 0 0 0 0 0 0 0 0 0 0 0 0 0 0 0 0 0 0 0 0 0 0 0 0 0 0 0
-0 -0 0 -0 -0 -0 0 0 0 0 0 -0 0 0 0 0 0 0 0 0 0 0 0 0 0 0 0 0 0 0 0 0 0 0 0 0 0 0 0 0 0 0 0 0
-0 0 0 0 0 0 0 0 0 0 1 1 1 1 0 0 0 0 0 0 0 0 0 0 0 0 0 0 0 0 0 0 0 0 0 0 0 0 0 0 0 0 0 0
-0 -0 -0 0 0 0 0 0 0 0 0 0 1 1 0 0 0 0 0 0 0 0 0 0 0 0 0 0 0 0 0 0 0 0 0 0 0 0 0 0 0 0 0 0
0 0 -0 -0 0 0 0 0 0 0 0 0 0 0 0 0 0 0 0 0 0 0 0 0 0 0 0 0 0 0 0 0 0 0 0 0 0 0 0 0 0 0 0 0
Wind_Speed_500mb
43 46 21 45 45 39 34 23 25 16 14 21 24 22 42 65 70 67 63 62 63 61 56 48 43 41 34 27 34 30 29 17 23 15 23 21 23 28 33 35 36 32 31 34
38 38 44 35 52 42 39 25 19 21 20 18 22 48 40 62 66 64 70 67 64 61 58 55 50 46 42 32 39 33 30 23 23 25 23 25 20 26 29 36 36 29 27 30
44 36 20 36 43 49 41 20 26 28 13 10 12 21 35 63 69 74 76 76 69 67 63 59 56 48 45 39 42 35 32 26 17 35 30 30 29 27 23 23 27 24 28 34
24 25 38 22 22 41 41 35 21 17 27 18 16 24 54 78 78 84 80 82 76 72 65 60 55 51 47 45 44 36 36 30 21 39 34 29 36 32 25 24 20 23 33 33
18 33 2 10 20 43 22 26 30 20 26 28 51 27 32 87 78 78 85 85 82 78 69 64 60 55 54 50 46 38 42 38 29 43 37 35 36 38 35 26 20 25 32 36
0 16 40 15 14 14 13 23 22 22 20 18 32 15 10 61 74 72 77 80 85 80 73 69 65 63 60 56 51 43 44 45 32 34 42 39 37 32 37 36 26 21 25 28
9 10 3 14 11 20 16 21 17 42 34 25 15 20 33 33 61 71 77 80 79 83 78 73 67 66 64 62 58 46 39 45 38 36 43 33 40 34 27 39 38 27 19 23
5 10 11 7 19 7 15 10 43 47 62 51 51 42 31 23 39 73 71 77 81 86 81 75 71 68 65 67 59 49 46 48 46 40 45 43 41 40 31 36 40 35 28 20
9 4 6 34 28 42 40 38 34 25 51 67 56 44 40 37 34 66 72 75 80 82 83 79 74 65 67 63 61 55 50 54 52 45 45 47 45 43 40 38 42 43 37 33
16 24 40 45 91 97 76 29 33 31 42 72 64 51 42 38 49 61 77 76 81 86 84 83 78 66 54 64 65 61 55 57 57 53 50 48 44 45 42 43 50 46 44 43
12 27 47 53 77 85 75 61 32 32 46 73 66 60 55 57 62 67 66 80 79 83 80 76 75 70 61 64 68 68 61 59 63 59 54 50 49 47 43 41 47 53 49 48
6 27 13 40 78 79 78 65 55 63 6 61 59 64 57 57 69 67 60 79 78 76 76 73 71 71 66 64 70 72 68 66 67 66 62 54 48 48 44 37 38 50 39 35
18 48 35 51 58 72 82 62 51 55 43 25 41 65 67 63 72 62 55 55 72 72 66 68 66 68 64 63 68 76 76 73 69 70 69 62 53 50 47 38 40 30 45 37
37 45 35 44 63 82 76 56 61 39 50 33 9 37 54 73 67 60 53 58 69 62 55 56 63 59 56 59 66 75 79 74 75 74 72 68 59 54 52 49 53 49 49 52
19 24 32 50 59 69 62 61 63 47 50 65 13 29 38 67 62 57 47 52 63 59 60 62 61 59 61 61 63 74 78 80 77 76 72 67 62 54 54 54 54 55 54 60
25 20 23 33 49 53 56 51 57 44 32 41 34 37 17 27 54 55 41 33 43 69 69 68 67 64 65 65 65 70 79 83 83 79 76 66 62 63 60 61 59 57 63 63
26 20 18 32 39 45 46 40 47 32 48 47 1 28 53 23 37 33 39 25 28 29 32 37 23 62 66 70 66 69 80 82 87 86 82 80 71 65 68 62 68 66 63 56
38 36 30 35 35 43 43 49 45 33 36 45 31 29 5 27 7 22 29 18 35 30 26 26 29 20 69 67 65 69 73 80 86 92 89 81 77 73 67 73 72 70 70 65
54 46 44 30 39 29 36 44 52 48 31 37 52 48 28 18 12 41 38 30 41 44 37 37 26 24 35 71 66 69 77 73 73 87 90 88 66 67 76 70 80 77 78 79
36 48 43 49 47 50 35 47 66 65 59 58 63 34 7 37 12 26 34 37 40 45 48 45 38 25 19 29 61 67 67 61 55 68 83 88 87 82 74 74 81 70 88 87
28 24 26 33 50 42 48 48 51 68 75 75 63 53 36 19 28 35 42 40 39 45 42 45 42 39 31 27 34 53 47 54 55 50 55 67 76 78 71 70 77 63 69 79
41 36 33 26 28 32 45 52 58 67 72 65 61 60 57 44 33 27 34 38 46 43 40 38 34 33 28 31 35 42 50 46 43 30 56 60 58 63 76 68 62 75 67 74
24 32 37 40 47 56 48 33 44 65 66 62 51 53 39 27 20 14 30 27 43 28 40 41 40 36 33 30 35 32 32 32 45 48 32 42 46 52 53 56 60 61 62 66
47 16 22 43 49 52 60 58 53 44 49 48 49 39 19 24 23 31 32 32 24 17 3 32 28 22 28 32 31 28 33 35 29 37 46 49 53 50 48 54 59 62 62 62
60 28 28 20 7 11 32 28 39 47 18 18 18 23 24 25 26 25 13 12 28 36 7 12 24 22 21 24 33 32 27 25 23 27 27 32 34 43 54 60 63 63 64 59
64 57 65 47 43 39 33 40 35 34 29 21 25 30 35 32 28 25 22 27 32 39 39 25 18 14 17 20 19 16 14 13 15 17 19 24 33 39 45 56 61 63 61 60
51 53 54 55 55 37 39 41 35 39 49 59 51 43 46 50 38 38 38 41 43 40 35 29 34 31 24 22 18 15 12 11 10 9 8 8 12 20 35 45 50 53 56 58
Wind_Direction_500mb
224 247 254 191 187 182 203 188 185 193 198 183 170 168 163 163 161 166 170 177 181 182 180 185 187 193 195 181 190 180 190 173 164 144 122 113 101 99 105 96 112 118 117 138
228 227 239 225 188 190 206 191 191 170 216 184 205 181 148 162 164 167 175 180 185 186 186 186 188 190 195 184 191 183 194 182 168 157 144 141 128 110 108 109 108 114 109 128
217 226 244 238 203 194 203 197 181 198 175 239 165 192 157 165 168 172 180 183 187 188 191 190 190 191 195 188 191 184 194 186 173 158 163 158 145 133 132 129 110 109 120 117
201 198 236 231 213 194 201 198 206 171 180 206 209 221 186 170 173 177 184 186 190 189 193 194 193 193 193 192 195 187 192 193 184 165 177 174 162 157 153 148 134 125 134 129
185 201 199 250 180 193 188 208 195 183 186 193 220 209 178 178 183 185 188 189 193 194 192 190 192 190 191 193 196 191 192 198 189 179 187 175 175 174 165 152 147 139 142 138
214 166 210 205 231 174 140 198 185 165 183 165 183 197 228 191 192 190 189 190 193 193 190 190 192 190 191 194 197 196 192 202 194 185 191 184 190 186 186 180 171 161 154 156
216 131 211 167 219 198 171 218 185 179 181 171 170 181 208 201 185 185 185 188 192 191 192 194 192 190 191 194 200 201 189 202 199 192 198 195 194 199 192 185 175 173 179 171
157 95 146 138 288 252 202 154 174 177 184 180 191 197 215 222 202 179 176 182 189 189 192 194 194 193 193 197 201 199 191 200 201 196 198 199 201 206 206 189 181 179 200 199
355 221 348 33 334 346 209 159 146 172 189 188 185 185 189 173 174 184 179 180 185 191 193 194 196 199 198 200 195 199 193 201 203 200 203 206 207 210 211 201 187 189 197 210
328 347 1 25 1 357 352 160 166 178 201 186 183 184 192 190 184 186 175 178 184 189 191 193 197 202 209 198 195 197 195 202 204 201 203 206 212 218 220 212 202 198 202 208
284 360 358 353 346 344 347 13 6 205 204 191 190 189 193 178 159 163 174 175 182 189 192 197 200 205 205 203 196 197 196 205 206 205 206 208 217 221 226 228 217 210 210 219
334 336 334 318 329 341 348 356 9 13 186 188 187 187 190 192 185 171 167 177 181 189 192 196 202 204 205 205 202 198 198 206 209 206 207 212 218 217 228 237 221 217 218 216
323 333 331 326 331 337 336 337 355 12 2 357 187 196 199 189 170 168 175 181 182 186 192 194 201 204 208 207 205 202 202 208 212 210 209 212 215 218 218 213 208 210 212 211
248 295 327 338 331 325 327 335 354 13 5 351 322 186 178 166 164 166 175 180 181 177 182 196 200 205 212 210 207 206 206 212 214 214 213 216 220 223 223 216 208 208 208 206
253 270 289 299 318 310 326 344 351 6 15 348 351 75 167 164 164 166 170 175 182 189 195 194 201 210 212 211 207 207 207 210 216 218 217 218 222 225 224 223 221 220 212 210
222 237 275 291 301 321 325 326 329 349 14 274 57 77 13 147 151 164 165 149 174 190 197 197 203 209 211 213 212 209 210 212 213 215 216 216 221 225 225 223 226 229 228 223
233 187 242 262 283 297 303 293 316 303 330 332 276 119 282 135 148 138 151 157 165 167 179 180 179 212 210 210 211 210 211 215 216 216 217 217 221 223 225 227 226 230 236 237
281 253 221 237 268 276 286 284 311 275 290 327 294 235 251 99 95 169 172 165 176 170 181 195 205 211 205 210 209 208 213 217 218 217 220 219 220 225 227 230 230 231 236 238
256 267 234 233 259 265 249 274 289 292 310 270 280 210 183 207 301 183 188 197 187 183 190 198 201 188 174 204 208 209 210 216 220 219 219 218 220 222 224 230 231 229 231 235
263 264 265 221 222 245 252 265 274 279 286 296 308 325 238 192 194 186 180 196 201 199 205 207 205 205 194 176 199 209 211 210 221 221 222 224 224 225 226 226 230 236 235 235
309 287 275 232 214 219 233 242 258 276 283 282 290 300 306 296 264 215 203 202 190 197 200 212 230 229 234 219 195 197 204 214 219 224 230 230 231 231 228 232 233 239 251 243
303 294 279 274 255 244 234 230 240 250 261 268 276 296 295 289 281 263 204 201 194 197 199 208 222 230 231 230 220 211 210 206 201 210 224 230 232 235 230 234 239 241 246 236
312 293 279 271 266 255 251 260 264 274 278 276 274 267 275 274 267 205 168 155 173 176 209 215 224 230 234 228 216 217 217 230 231 224 216 220 221 221 222 226 231 236 233 226
359 315 287 275 268 262 253 242 252 269 268 272 254 257 223 201 151 131 130 157 160 157 181 186 186 198 213 202 209 206 215 216 204 204 201 200 204 213 224 229 231 227 221 217
17 38 51 134 146 231 225 211 240 228 151 171 164 173 183 182 196 161 178 214 172 166 252 108 133 148 153 161 178 179 192 205 204 204 200 208 211 214 217 222 222 219 217 220
26 43 44 51 62 83 130 161 113 145 168 141 136 139 127 124 133 149 162 148 157 168 170 182 196 170 173 190 181 185 195 200 216 218 223 223 218 216 217 218 220 220 219 221
22 44 52 52 50 64 79 90 104 106 111 115 116 108 108 120 125 124 130 137 141 143 143 163 160 161 172 165 172 166 173 184 205 224 237 243 245 228 220 220 223 223 222 220
Wind_Speed_850mb
43 46 21 45 45 39 34 23 25 16 14 21 24 22 42 65 70 67 63 62 63 61 56 48 43 41 34 27 34 30 29 17 23 15 23 21 23 28 33 35 36 32 31 34
38 38 44 35 52 42 39 25 19 21 20 18 22 48 40 62 66 64 70 67 64 61 58 55 50 46 42 32 39 33 30 23 23 25 23 25 20 26 29 36 36 29 27 30
44 36 20 36 43 49 41 20 26 28 13 10 12 21 35 63 69 74 76 76 69 67 63 59 56 48 45 39 42 35 32 26 17 35 30 30 29 27 23 23 27 24 28 34
24 25 38 22 22 41 41 35 21 17 27 18 16 24 54 78 78 84 80 82 76 72 65 60 55 51 47 45 44 36 36 30 21 39 34 29 36 32 25 24 20 23 33 33
18 33 2 10 20 43 22 26 30 20 26 28 51 27 32 87 78 78 85 85 82 78 69 64 60 55 54 50 46 38 42 38 29 43 37 35 36 38 35 26 20 25 32 36
0 16 40 15 14 14 13 23 22 22 20 18 32 15 10 61 74 72 77 80 85 80 73 69 65 63 60 56 51 43 44 45 32 34 42 39 37 32 37 36 26 21 25 28
9 10 3 14 11 20 16 21 17 42 34 25 15 20 33 33 61 71 77 80 79 83 78 73 67 66 64 62 58 46 39 45 38 36 43 33 40 34 27 39 38 27 19 23
5 10 11 7 19 7 15 10 43 47 62 51 51 42 31 23 39 73 71 77 81 86 81 75 71 68 65 67 59 49 46 48 46 40 45 43 41 40 31 36 40 35 28 20
9 4 6 34 28 42 40 38 34 25 51 67 56 44 40 37 34 66 72 75 80 82 83 79 74 65 67 63 61 55 50 54 52 45 45 47 45 43 40 38 42 43 37 33
16 24 40 45 91 97 76 29 33 31 42 72 64 51 42 38 49 61 77 76 81 86 84 83 78 66 54 64 65 61 55 57 57 53 50 48 44 45 42 43 50 46 44 43
12 27 47 53 77 85 75 61 32 32 46 73 66 60 55 57 62 67 66 80 79 83 80 76 75 70 61 64 68 68 61 59 63 59 54 50 49 47 43 41 47 53 49 48
6 27 13 40 78 79 78 65 55 63 6 61 59 64 57 57 69 67 60 79 78 76 76 73 71 71 66 64 70 72 68 66 67 66 62 54 48 48 44 37 38 50 39 35
18 48 35 51 58 72 82 62 51 55 43 25 41 65 67 63 72 62 55 55 72 72 66 68 66 68 64 63 68 76 76 73 69 70 69 62 53 50 47 38 40 30 45 37
37 45 35 44 63 82 76 56 61 39 50 33 9 37 54 73 67 60 53 58 69 62 55 56 63 59 56 59 66 75 79 74 75 74 72 68 59 54 52 49 53 49 49 52
19 24 32 50 59 69 62 61 63 47 50 65 13 29 38 67 62 57 47 52 63 59 60 62 61 59 61 61 63 74 78 80 77 76 72 67 62 54 54 54 54 55 54 60
25 20 23 33 49 53 56 51 57 44 32 41 34 37 17 27 54 55 41 33 43 69 69 68 67 64 65 65 65 70 79 83 83 79 76 66 62 63 60 61 59 57 63 63
26 20 18 32 39 45 46 40 47 32 48 47 1 28 53 23 37 33 39 25 28 29 32 37 23 62 66 70 66 69 80 82 87 86 82 80 71 65 68 62 68 66 63 56
38 36 30 35 35 43 43 49 45 33 36 45 31 29 5 27 7 22 29 18 35 30 26 26 29 20 69 67 65 69 73 80 86 92 89 81 77 73 67 73 72 70 70 65
54 46 44 30 39 29 36 44 52 48 31 37 52 48 28 18 12 41 38 30 41 44 37 37 26 24 35 71 66 69 77 73 73 87 90 88 66 67 76 70 80 77 78 79
36 48 43 49 47 50 35 47 66 65 59 58 63 34 7 37 12 26 34 37 40 45 48 45 38 25 19 29 61 67 67 61 55 68 83 88 87 82 74 74 81 70 88 87
28 24 26 33 50 42 48 48 51 68 75 75 63 53 36 19 28 35 42 40 39 45 42 45 42 39 31 27 34 53 47 54 55 50 55 67 76 78 71 70 77 63 69 79
41 36 33 26 28 32 45 52 58 67 72 65 61 60 57 44 33 27 34 38 46 43 40 38 34 33 28 31 35 42 50 46 43 30 56 60 58 63 76 68 62 75 67 74
24 32 37 40 47 56 48 33 44 65 66 62 51 53 39 27 20 14 30 27 43 28 40 41 40 36 33 30 35 32 32 32 45 48 32 42 46 52 53 56 60 61 62 66
47 16 22 43 49 52 60 58 53 44 49 48 49 39 19 24 23 31 32 32 24 17 3 32 28 22 28 32 31 28 33 35 29 37 46 49 53 50 48 54 59 62 62 62
60 28 28 20 7 11 32 28 39 47 18 18 18 23 24 25 26 25 13 12 28 36 7 12 24 22 21 24 33 32 27 25 23 27 27 32 34 43 54 60 63 63 64 59
64 57 65 47 43 39 33 40 35 34 29 21 25 30 35 32 28 25 22 27 32 39 39 25 18 14 17 20 19 16 14 13 15 17 19 24 33 39 45 56 61 63 61 60
51 53 54 55 55 37 39 41 35 39 49 59 51 43 46 50 38 38 38 41 43 40 35 29 34 31 24 22 18 15 12 11 10 9 8 8 12 20 35 45 50 53 56 58
Wind_Direction_850mb
224 247 254 191 187 182 203 188 185 193 198 183 170 168 163 163 161 166 170 177 181 182 180 185 187 193 195 181 190 180 190 173 164 144 122 113 101 99 105 96 112 118 117 138
228 227 239 225 188 190 206 191 191 170 216 184 205 181 148 162 164 167 175 180 185 186 186 186 188 190 195 184 191 183 194 182 168 157 144 141 128 110 108 109 108 114 109 128
217 226 244 238 203 194 203 197 181 198 175 239 165 192 157 165 168 172 180 183 187 188 191 190 190 191 195 188 191 184 194 186 173 158 163 158 145 133 132 129 110 109 120 117
201 198 236 231 213 194 201 198 206 171 180 206 209 221 186 170 173 177 184 186 190 189 193 194 193 193 193 192 195 187 192 193 184 165 177 174 162 157 153 148 134 125 134 129
185 201 199 250 180 193 188 208 195 183 186 193 220 209 178 178 183 185 188 189 193 194 192 190 192 190 191 193 196 191 192 198 189 179 187 175 175 174 165 152 147 139 142 138
214 166 210 205 231 174 140 198 185 165 183 165 183 197 228 191 192 190 189 190 193 193 190 190 192 190 191 194 197 196 192 202 194 185 191 184 190 186 186 180 171 161 154 156
216 131 211 167 219 198 171 218 185 179 181 171 170 181 208 201 185 185 185 188 192 191 192 194 192 190 191 194 200 201 189 202 199 192 198 195 194 199 192 185 175 173 179 171
157 95 146 138 288 252 202 154 174 177 184 180 191 197 215 222 202 179 176 182 189 189 192 194 194 193 193 197 201 199 191 200 201 196 198 199 201 206 206 189 181 179 200 199
355 221 348 33 334 346 209 159 146 172 189 188 185 185 189 173 174 184 179 180 185 191 193 194 196 199 198 200 195 199 193 201 203 200 203 206 207 210 211 201 187 189 197 210
328 347 1 25 1 357 352 160 166 178 201 186 183 184 192 190 184 186 175 178 184 189 191 193 197 202 209 198 195 197 195 202 204 201 203 206 212 218 220 212 202 198 202 208
284 360 358 353 346 344 347 13 6 205 204 191 190 189 193 178 159 163 174 175 182 189 192 197 200 205 205 203 196 197 196 205 206 205 206 208 217 221 226 228 217 210 210 219
334 336 334 318 329 341 348 356 9 13 186 188 187 187 190 192 185 171 167 177 181 189 192 196 202 204 205 205 202 198 198 206 209 206 207 212 218 217 228 237 221 217 218 216
323 333 331 326 331 337 336 337 355 12 2 357 187 196 199 189 170 168 175 181 182 186 192 194 201 204 208 207 205 202 202 208 212 210 209 212 215 218 218 213 208 210 212 211
248 295 327 338 331 325 327 335 354 13 5 351 322 186 178 166 164 166 175 180 181 177 182 196 200 205 212 210 207 206 206 212 214 214 213 216 220 223 223 216 208 208 208 206
253 270 289 299 318 310 326 344 351 6 15 348 351 75 167 164 164 166 170 175 182 189 195 194 201 210 212 211 207 207 207 210 216 218 217 218 222 225 224 223 221 220 212 210
222 237 275 291 301 321 325 326 329 349 14 274 57 77 13 147 151 164 165 149 174 190 197 197 203 209 211 213 212 209 210 212 213 215 216 216 221 225 225 223 226 229 228 223
233 187 242 262 283 297 303 293 316 303 330 332 276 119 282 135 148 138 151 157 165 167 179 180 179 212 210 210 211 210 211 215 216 216 217 217 221 223 225 227 226 230 236 237
281 253 221 237 268 276 286 284 311 275 290 327 294 235 251 99 95 169 172 165 176 170 181 195 205 211 205 210 209 208 213 217 218 217 220 219 220 225 227 230 230 231 236 238
256 267 234 233 259 265 249 274 289 292 310 270 280 210 183 207 301 183 188 197 187 183 190 198 201 188 174 204 208 209 210 216 220 219 219 218 220 222 224 230 231 229 231 235
263 264 265 221 222 245 252 265 274 279 286 296 308 325 238 192 194 186 180 196 201 199 205 207 205 205 194 176 199 209 211 210 221 221 222 224 224 225 226 226 230 236 235 235
309 287 275 232 214 219 233 242 258 276 283 282 290 300 306 296 264 215 203 202 190 197 200 212 230 229 234 219 195 197 204 214 219 224 230 230 231 231 228 232 233 239 251 243
303 294 279 274 255 244 234 230 240 250 261 268 276 296 295 289 281 263 204 201 194 197 199 208 222 230 231 230 220 211 210 206 201 210 224 230 232 235 230 234 239 241 246 236
312 293 279 271 266 255 251 260 264 274 278 276 274 267 275 274 267 205 168 155 173 176 209 215 224 230 234 228 216 217 217 230 231 224 216 220 221 221 222 226 231 236 233 226
359 315 287 275 268 262 253 242 252 269 268 272 254 257 223 201 151 131 130 157 160 157 181 186 186 198 213 202 209 206 215 216 204 204 201 200 204 213 224 229 231 227 221 217
17 38 51 134 146 231 225 211 240 228 151 171 164 173 183 182 196 161 178 214 172 166 252 108 133 148 153 161 178 179 192 205 204 204 200 208 211 214 217 222 222 219 217 220
26 43 44 51 62 83 130 161 113 145 168 141 136 139 127 124 133 149 162 148 157 168 170 182 196 170 173 190 181 185 195 200 216 218 223 223 218 216 217 218 220 220 219 221
22 44 52 52 50 64 79 90 104 106 111 115 116 108 108 120 125 124 130 137 141 143 143 163 160 161 172 165 172 166 173 184 205 224 237 243 245 228 220 220 223 223 222 220